Overview Statistics Trail Chart Weather Telemetry Raw packets
 

This is the latest recevied weather packets stored in our database for station/object OE2WAO-15. If no packets are shown the sender has not sent any weather packets the latest 10 day(s).

<< 14 15 16 17 18 19 20 >>
Time Temp. Humidity Pressure Rain* Wind** Luminosity Snow
1788265210 25.56° C 75% 1022.1 hPa - - - -
1788264602 25.56° C 81% 1022.2 hPa - - - -
1788263995 25.56° C 86% 1022.3 hPa - - - -
1788263387 25° C 99% 1022.4 hPa - - - -
1788262779 25° C 99% 1022.5 hPa - - - -
1788262172 25° C 95% 1022.5 hPa - - - -
1788261564 24.44° C 99% 1022.6 hPa - - - -
1788260957 23.89° C 99% 1022.6 hPa - - - -
1788260349 23.89° C 99% 1022.7 hPa - - - -
1788259742 23.33° C 99% 1022.6 hPa - - - -
1788259134 22.78° C 99% 1022.8 hPa - - - -
1788258526 22.78° C 99% 1022.8 hPa - - - -
1788257919 22.22° C 99% 1022.7 hPa - - - -
1788257310 21.67° C 99% 1022.8 hPa - - - -
1788256703 21.11° C 99% 1022.8 hPa - - - -
1788256094 21.11° C 99% 1022.8 hPa - - - -
1788255487 20.56° C 99% 1022.8 hPa - - - -
1788254879 20° C 99% 1022.8 hPa - - - -
1788254271 20° C 99% 1022.9 hPa - - - -
1788253663 20° C 99% 1022.9 hPa - - - -
1788253056 19.44° C 99% 1022.9 hPa - - - -
1788252448 19.44° C 99% 1022.9 hPa - - - -
1788251840 19.44° C 99% 1022.9 hPa - - - -
1788251233 18.89° C 99% 1022.8 hPa - - - -
1788250625 18.89° C 99% 1022.8 hPa - - - -

* Rain since midnight (hover to see other rain measurements)
** Current wind speed in m/s (hover to see current wind gust speed)